Location: Little Chesterford
(52.0500°N, 0.1833°E)
Time: 19:46:48
(UTC+00:00)

SPOT 5 - Pass Details

Date: 26 September 2023
Orbit: 622 x 810 km, 98.1° (Epoch: 08 December)

Event Time Altitude Azimuth Distance (km) Brightness Sun altitude
Exits shadow 20:17:18 42° 55° (NE) 962 3.3 -22.7°
Drops below altitude 10° 20:21:14 10° 357° (N) 2,078 5.7 -23.3°
Sets 20:23:29 0° 351° (N) 2,972 6.6 -23.6°
